This is the latest recevied weather packets stored in our database for station/object KA1AL. If no packets are shown the sender has not sent any weather packets the latest 10 day(s).
| Time | Temp. | Humidity | Pressure | Rain* | Wind** | Luminosity | Snow |
|---|---|---|---|---|---|---|---|
| 1778180498 | 13.33° C | 64% | 1002.5 hPa | 0 mm | - | 756 W/m² | - |
| 1778180196 | 12.78° C | 70% | 1002.4 hPa | 0 mm | - | 275 W/m² | - |
| 1778179892 | 11.67° C | 70% | 1002.7 hPa | 0 mm | - | 187 W/m² | - |
| 1778179590 | 12.22° C | 69% | 1002.8 hPa | 0 mm | - | 162 W/m² | - |
| 1778179288 | 11.67° C | 72% | 1002.6 hPa | 0 mm | - | 753 W/m² | - |
| 1778178984 | 11.67° C | 70% | 1002.7 hPa | 0 mm | - | 394 W/m² | - |
| 1778178681 | 12.22° C | 68% | 1002.5 hPa | 0 mm | - | 163 W/m² | - |
| 1778178377 | 12.22° C | 67% | 1002.8 hPa | 0 mm | - | 224 W/m² | - |
| 1778178073 | 12.22° C | 68% | 1002.9 hPa | 0 mm | - | 380 W/m² | - |
| 1778177770 | 12.22° C | 72% | 1002.9 hPa | 0 mm | - | 769 W/m² | - |
| 1778177467 | 11.67° C | 71% | 1002.9 hPa | 0 mm | - | 253 W/m² | - |
| 1778177163 | 11.67° C | 70% | 1003 hPa | 0 mm | - | 177 W/m² | - |
| 1778176860 | 11.67° C | 71% | 1002.8 hPa | 0 mm | - | 194 W/m² | - |
| 1778176556 | 11.67° C | 68% | 1002.7 hPa | 0 mm | - | 112 W/m² | - |
| 1778176254 | 12.22° C | 67% | 1002.7 hPa | 0 mm | - | 86 W/m² | - |
| 1778175951 | 12.22° C | 65% | 1002.7 hPa | 0 mm | - | 128 W/m² | - |
| 1778175649 | 12.22° C | 66% | 1002.4 hPa | 0 mm | - | 208 W/m² | - |
| 1778175345 | 12.78° C | 67% | 1002.9 hPa | 0 mm | - | 357 W/m² | - |
| 1778175042 | 12.78° C | 69% | 1002.7 hPa | 0 mm | - | 276 W/m² | - |
| 1778174738 | 12.78° C | 66% | 1002.6 hPa | 0 mm | - | 282 W/m² | - |
| 1778174436 | 12.22° C | 67% | 1002.9 hPa | 0 mm | - | 281 W/m² | - |
| 1778174131 | 11.67° C | 67% | 1002.8 hPa | 0 mm | - | 252 W/m² | - |
| 1778173828 | 12.22° C | 65% | 1003.2 hPa | 0 mm | - | 296 W/m² | - |
| 1778173525 | 11.67° C | 69% | 1003 hPa | 0 mm | - | 740 W/m² | - |
| 1778173222 | 11.67° C | 69% | 1003.2 hPa | 0 mm | - | 268 W/m² | - |
* Rain latest hour (hover to see other rain measurements)
** Current wind speed in m/s (hover to see current wind gust speed)